STARLINK-35362, 65888

Orbit data source: Space-Track

STARLINK-35362, 65888 is a payload satellite owned by SpaceX/Seattle (US) in LEO that was launched on Tue, 07 Oct 2025 UTC via an FALCON 9 launch vehicle from the Air Force Eastern Test Range (AFETR). Payload-class satellites include a variety of spacecraft equipped with specific instruments for various scientific and technological missions. These include communications satellites like Starlink; space stations such as the ISS; scientific satellites like the Hubble; Earth observation satellites from companies like Planet Labs, Umbra, and HawkEye 360; GPS; miniature CubeSats for education and research; and military/defense satellites.

Loading next visibility...
Identifier
65888, 2025-224G
Orbit
LEO
Country
Flag of USUS
Related business
Manufacturer
SpaceX/Seattle
Mission
Operational Commercial Communications
Bus & Motor
STARLINK V2MO, Unknown motor
Mass
575 kg wet, ~530 kg dry
Launch date (UTC)
2025-10-07 (5 months ago)
Launch vehicle
FALCON 9
Launch site
Air Force Eastern Test Range (AFETR)
Object type
Payload
Rocket body
Debris
Shape & HBR
Box + 2 Pan, 17.7 m
Radar Cross Section
36.964 m²

Expand to show TLE details & history
Last TLE update: 7 hours ago

TLE from 7 hours ago
0 STARLINK-35362
1 65888U 25224G   26062.36502882  .00022331  00000-0  76369-3 0  9995
2 65888  53.1593  40.8961 0001210  94.3681 265.7458 15.30205933 23852
Epoch: 2026-03-03T08:45Z
TLE epoch observation values (Epoch: 2026-03-03T08:45:38.490Z)
Latitude
-0°
Longitude
108.34059°
Altitude
476.159 km
Speed
7.629 km/s
True Right ascension
02h 43m 35s
True Declination
0° 00' 00"
Sunlit
Object was in daylight at epoch
Visualization orbit readout
Latitude
Unknown
Longitude
Unknown
Altitude
Unknown
Speed
Unknown
Apparent Right ascension
Unknown
Apparent Declination
Unknown
Sunlit
N/A
Visualization observer readout
Local Sidereal Time
19:34:20
Azimuth
Unknown
Elevation
Unknown
Doppler factor
Unknown
Orbital elements
Apogee altitude
476.283 km
Perigee altitude
474.625 km
Semi-major axis
6,853.591 km
Eccentricity
0.00012
Inclination
53.1593°
RAAN
40.8961°
Arg. of periapsis
94.3681°
True anomaly
265.73197°
Mean anomaly
265.7458°
Eccentric anomaly
265.73889°
Mean motion
3.8253 °/min
Orbital period
94.11 mins
BSTAR
0.00076369
Loading maneuver chart data...
Computing Atmospheric mass density...
Loading historical data...
Loading historical data...
Loading historical data...
Loading historical data...
Loading historical data...
Loading historical data...
Loading historical data...

Documentation

Showing up to 5 results
|